GSAT0203

Last updated on Sun May 29 2016 01:44:43 GMT+0000 (Coordinated Universal Time)

1 40544U 15017A 16148.02386575 -.00000012 00000-0 00000-0 0 9991 2 40544 55.3275 82.8959 0002904 261.2025 98.7457 1.70475032 6588

Satellite not in orbit

GSAT0203